This demonstration page uses our WeatherBlox Daily Observations layout. Learn more.

Left ArrowRight Arrow

Hourly Observations for November 4, 2020

Temp ( °F °C ) Dew Point ( °F °C ) Humidity (%) Winds ( mph kmh ) Pressure ( in mb ) Visibility ( mi km ) Precip ( " mm )
12:52 am 00:52 Clear 47 8.3 38 3.3 71 71 SSE 9 15 29.93 1014 10 16 0.00 0.00
1:52 am 01:52 Clear 45 7.2 38 3.3 77 77 SSE 10 17 29.93 1014 10 16 0.00 0.00
2:52 am 02:52 Clear 45 7.2 38 3.3 77 77 SSE 10 17 29.93 1014 10 16 0.00 0.00
3:52 am 03:52 Clear 44 6.7 38 3.3 79 79 SSE 10 17 29.93 1013 10 16 0.00 0.00
4:52 am 04:52 Clear 43 6.1 38 3.3 82 82 SSE 9 15 29.93 1014 10 16 0.00 0.00
5:52 am 05:52 Partly Cloudy 46 7.8 40 4.4 79 79 S 8 13 29.94 1014 10 16 0.00 0.00
6:52 am 06:52 Mostly Cloudy 44 6.7 40 4.4 85 85 SSE 7 11 29.95 1014 10 16 0.00 0.00
7:52 am 07:52 Mostly Cloudy 46 7.8 42 5.6 86 86 SSE 8 13 29.97 1015 10 16 0.00 0.00
8:52 am 08:52 Mostly Cloudy 52 11.1 44 6.7 75 75 SSE 9 15 29.98 1015 10 16 0.00 0.00
9:52 am 09:52 Mostly Cloudy 57 13.9 45 7.2 64 64 Calm 29.98 1015 10 16 0.00 0.00
10:52 am 10:52 Partly Cloudy 62 16.7 44 6.7 52 52 S 8 13 29.97 1015 10 16 0.00 0.00
11:52 am 11:52 Partly Cloudy 65 18.3 44 6.7 47 47 S 12 19 29.97 1015 10 16 0.00 0.00
12:52 pm 12:52 Partly Cloudy 69 20.6 46 7.8 44 44 S 7 11 29.95 1014 10 16 0.00 0.00
1:52 pm 13:52 Partly Cloudy 70 21.1 44 6.7 39 39 S 10 17 29.95 1014 10 16 0.00 0.00
2:52 pm 14:52 Partly Cloudy 74 23.3 45 7.2 36 36 S 12 19 29.94 1014 10 16 0.00 0.00
3:52 pm 15:52 Partly Cloudy 73 22.8 45 7.2 37 37 S 10 17 29.95 1014 10 16 0.00 0.00
4:52 pm 16:52 Partly Cloudy 66 18.9 47 8.3 50 50 SSE 9 15 29.96 1015 10 16 0.00 0.00
5:52 pm 17:52 Partly Cloudy 62 16.7 45 7.2 54 54 SSE 12 19 29.98 1015 10 16 0.00 0.00
6:52 pm 18:52 Partly Cloudy 58 14.4 44 6.7 60 60 SSE 10 17 30.01 1016 10 16 0.00 0.00
7:52 pm 19:52 Partly Cloudy 57 13.9 44 6.7 62 62 SSE 7 11 30.02 1017 10 16 0.00 0.00
8:52 pm 20:52 Partly Cloudy 53 11.7 43 6.1 69 69 SSE 8 13 30.03 1017 10 16 0.00 0.00
9:52 pm 21:52 Partly Cloudy 52 11.1 43 6.1 72 72 SE 8 13 30.05 1018 10 16 0.00 0.00
10:52 pm 22:52 Partly Cloudy 50 10 43 6.1 77 77 SSE 9 15 30.06 1018 10 16 0.00 0.00
11:52 pm 23:52 Partly Cloudy 49 9.4 42 5.6 77 77 SSE 9 15 30.06 1018 10 16 0.00 0.00

Powered by AerisWeather